RH
35 23 18 19 20 24 27 26 24 25 27 26 24 24 24 25 26 25 29 38 41 36 30 27 28 25 23 21 17 18 20 22 23 21 21 21 20 20 20 21 21 20 19 22 25 25 23 23 24 26 27 27 27 26 26 27 27 28 30 30 28 26 25 25 25 25 26 27 28 31 33 32 30 33 36 36 37 36 36 36 36 52 66 65 66 64
35 21 18 24 25 30 31 30 30 29 30 28 25 25 28 28 26 27 33 37 38 35 29 26 28 25 21 19 17 20 23 22 21 20 20 19 19 20 20 22 22 21 21 23 23 22 22 22 23 25 26 27 27 25 26 26 25 27 29 29 27 26 26 25 25 25 25 25 25 28 30 30 28 31 35 35 37 38 37 36 38 50 62 65 66 63
26 19 23 31 32 35 34 34 32 31 32 28 24 27 28 28 26 30 38 37 33 32 29 27 28 22 19 19 18 21 22 22 22 22 22 20 20 20 19 21 23 22 22 22 20 20 21 21 22 25 25 25 26 25 26 26 25 27 28 28 27 26 25 25 25 25 25 24 23 23 24 28 29 30 33 33 33 34 35 36 40 47 54 59 62 61
20 22 31 38 36 33 32 33 31 30 30 24 23 27 27 27 26 29 34 33 31 32 31 30 30 24 20 19 18 20 23 24 25 26 27 26 23 21 21 22 23 22 23 23 21 19 19 20 21 23 24 25 25 25 25 26 26 27 27 27 27 26 25 25 26 25 24 24 25 24 23 27 30 31 34 36 36 35 35 36 41 44 44 49 57 59
25 34 40 42 36 29 29 32 30 27 25 24 25 26 26 26 26 27 29 29 29 33 35 32 27 22 19 18 16 19 24 24 24 25 26 27 26 25 25 24 24 23 24 25 21 19 20 20 21 22 23 25 25 25 24 25 26 26 25 26 27 28 27 26 26 26 26 26 27 29 30 33 36 37 39 40 38 37 39 40 42 44 43 46 53 55
30 43 43 39 35 29 28 28 25 24 23 25 27 26 26 26 27 28 28 28 26 27 32 29 23 18 16 17 17 19 21 20 23 24 22 22 23 26 27 23 23 24 24 25 23 22 23 22 23 24 24 25 25 24 24 24 25 25 25 26 28 29 29 28 28 28 28 28 29 32 35 37 38 38 37 36 34 34 37 38 39 42 45 48 49 50
38 47 43 33 31 29 27 23 23 25 23 25 30 30 29 29 30 31 29 29 27 24 28 28 24 21 17 15 18 22 20 17 21 23 20 19 19 22 25 22 21 22 22 25 26 24 24 24 24 24 24 25 25 24 25 25 25 26 26 27 28 29 30 30 31 30 30 30 31 33 34 34 33 31 28 28 29 30 32 34 36 38 42 44 44 46
42 43 41 32 28 27 25 22 23 25 24 28 34 33 31 31 31 30 29 29 28 25 27 25 23 25 22 18 20 24 21 18 19 19 19 19 18 19 22 22 23 24 24 27 28 25 24 25 25 26 26 26 26 26 27 27 27 27 27 27 28 29 30 31 32 32 31 31 32 34 35 34 31 28 25 25 28 30 31 33 35 36 38 40 43 45
42 36 35 31 27 25 23 23 25 25 25 32 37 35 33 33 32 31 30 29 28 28 27 23 22 26 23 17 21 23 19 19 18 17 18 17 19 21 22 24 26 27 28 28 27 25 26 27 26 27 27 26 26 27 28 28 28 28 28 28 29 29 30 31 33 34 33 31 33 35 35 34 33 31 29 28 30 33 34 35 36 37 38 40 44 46
42 39 38 30 24 25 24 27 29 26 28 36 39 37 36 35 33 32 30 29 30 30 28 25 24 26 23 15 18 21 18 18 18 16 18 18 21 24 26 28 27 27 28 29 28 27 27 28 28 27 27 27 26 27 27 28 28 29 28 29 29 29 30 31 33 34 35 33 34 36 35 33 33 33 34 33 32 35 37 37 38 38 39 40 41 42
46 51 51 40 31 28 28 35 37 33 35 39 36 32 32 32 30 29 28 28 30 28 27 28 26 26 26 18 13 17 20 18 16 15 17 20 22 25 29 30 28 27 28 29 28 28 28 28 27 27 27 27 27 27 27 28 28 28 29 29 29 29 29 31 33 34 35 36 36 35 34 33 32 32 34 34 33 35 36 36 37 38 38 37 36 37
44 46 46 48 45 34 29 36 43 41 39 35 29 25 27 28 28 28 28 30 29 26 27 30 28 27 28 21 13 17 24 25 21 17 16 18 19 25 30 29 29 29 28 28 28 28 29 28 27 27 27 28 28 28 28 29 30 29 29 29 29 29 29 30 32 33 35 37 37 35 35 34 33 32 32 31 30 32 34 35 35 34 34 34 35 37
35 38 39 45 47 38 30 29 35 39 35 30 25 25 28 28 29 30 29 29 27 25 30 30 28 30 26 19 16 16 20 24 26 24 22 24 25 27 29 29 31 30 28 28 28 28 28 27 28 28 28 28 28 29 30 31 31 30 30 29 29 29 29 30 31 32 34 36 36 36 35 35 34 33 32 30 28 29 31 33 33 32 32 33 34 36
26 38 41 38 38 39 33 25 27 30 28 27 25 25 29 29 35 38 32 31 31 28 31 30 31 33 24 16 17 17 16 21 26 29 30 31 31 30 30 29 31 29 28 28 27 28 28 28 29 29 29 29 29 30 32 32 32 31 30 31 31 30 29 30 30 31 33 34 35 36 36 35 35 34 33 30 29 29 30 31 32 32 32 32 33 35
23 28 34 35 36 36 31 28 28 26 25 27 25 24 28 29 34 39 33 32 36 32 31 34 35 33 24 19 20 20 20 22 25 27 29 31 31 30 28 27 28 27 26 27 27 28 28 28 29 30 30 30 31 33 34 35 35 34 32 32 31 31 31 30 29 30 31 32 33 36 37 36 35 34 34 33 32 31 31 31 32 34 34 34 34 35
23 22 33 39 37 33 31 34 34 28 26 28 26 26 30 28 27 35 39 39 43 41 37 37 34 26 20 19 21 22 23 23 25 27 27 28 28 27 26 25 26 26 26 27 28 29 29 29 31 30 31 32 35 37 37 38 39 38 38 36 33 33 33 32 31 30 30 31 32 34 36 36 36 35 35 34 34 32 31 31 32 34 35 36 37 37
23 24 37 39 35 35 36 38 35 31 29 27 27 28 29 29 27 33 41 43 45 46 38 32 29 24 19 19 21 23 22 20 24 25 24 24 24 25 25 26 26 26 27 28 28 29 29 30 31 31 33 36 38 40 41 42 42 41 41 39 38 37 35 34 33 31 30 30 31 32 34 35 35 36 36 35 35 33 33 33 34 35 36 39 39 39
26 26 37 38 34 38 41 38 33 33 33 29 29 29 28 30 29 30 37 40 43 46 37 31 34 30 26 27 25 23 21 20 22 24 23 23 24 25 26 26 27 27 28 28 28 29 30 31 32 33 36 40 42 43 45 45 44 44 43 42 42 42 40 39 36 33 31 31 31 32 33 34 34 35 36 36 36 35 35 36 36 37 37 40 41 41
29 26 34 42 38 36 39 35 31 32 32 30 30 28 29 35 33 31 37 40 43 47 40 37 41 35 31 29 23 22 25 24 23 24 25 25 25 26 27 26 28 28 28 29 29 30 31 32 34 36 40 43 45 46 47 48 48 47 47 47 46 45 43 42 39 35 34 33 33 32 32 33 34 35 36 37 37 37 37 37 37 38 38 40 43 44
31 26 30 41 41 36 34 32 31 31 31 31 30 28 30 36 35 34 38 38 40 46 45 46 47 36 28 26 22 24 27 24 25 27 26 27 26 26 27 28 29 30 31 31 31 31 32 34 36 40 44 46 47 49 50 51 52 52 53 52 51 50 47 44 41 38 37 36 34 34 33 33 34 36 36 37 38 38 38 37 37 38 39 42 45 46
29 26 28 35 39 35 30 30 30 27 30 33 33 35 36 36 36 37 40 40 40 42 42 48 49 34 24 27 25 23 25 24 26 28 27 27 26 26 27 28 30 32 32 32 32 32 33 35 39 43 47 48 49 52 52 52 53 54 55 54 53 54 52 49 46 42 39 37 35 34 34 34 34 35 37 37 38 39 38 38 39 38 40 43 46 47
28 27 29 30 31 29 27 35 37 31 31 32 31 34 35 36 39 40 46 49 46 45 41 44 50 37 26 30 27 21 24 25 25 27 27 27 26 27 28 29 31 33 33 34 33 33 34 37 43 46 49 50 51 52 52 52 53 54 55 54 53 54 54 54 52 47 43 40 37 35 34 34 34 35 37 38 39 39 39 39 40 39 41 45 46 46
36 29 32 31 26 28 34 40 43 39 34 32 32 33 32 36 38 37 45 48 44 50 48 46 54 42 26 29 28 22 24 24 24 26 27 27 27 28 30 31 33 34 34 35 33 34 37 40 45 49 50 50 50 50 51 52 53 54 54 54 53 52 53 55 56 53 48 44 40 37 35 34 34 35 37 39 39 39 40 40 40 40 42 45 46 47
43 30 32 34 24 29 39 40 41 40 36 34 35 35 35 41 46 44 46 43 40 47 45 46 55 43 24 26 26 21 23 24 25 27 27 29 30 30 32 33 35 36 35 35 34 35 39 43 48 50 50 50 49 50 52 53 54 54 54 53 51 49 50 54 56 55 52 48 45 41 36 34 34 36 37 39 40 40 40 40 41 41 43 45 47 48
37 29 30 36 30 30 35 34 37 38 35 33 33 37 41 52 67 63 48 43 45 45 41 45 53 38 23 25 23 21 25 25 27 27 28 31 32 32 35 36 37 38 37 36 36 38 41 45 48 49 50 51 50 52 54 53 54 53 52 53 53 52 51 53 55 56 55 52 49 44 39 35 34 35 37 38 39 40 40 41 41 42 44 47 49 51
35 32 30 35 36 36 33 30 32 31 32 33 34 44 50 56 68 58 41 44 50 46 44 46 47 34 24 25 25 24 28 29 30 31 31 33 35 36 38 38 40 40 39 39 39 41 44 46 48 49 50 51 52 55 57 55 54 52 50 52 55 56 55 55 56 57 56 54 52 48 41 37 35 35 36 38 39 40 41 42 42 43 46 49 51 53
37 38 35 32 32 35 32 30 32 31 32 34 39 53 58 60 63 50 41 48 47 47 50 44 42 43 36 30 30 30 31 33 35 35 36 38 38 40 41 42 43 41 40 42 42 43 46 47 48 49 50 52 54 57 59 58 56 54 55 56 56 55 56 57 57 58 58 56 53 50 44 38 36 35 36 38 39 41 42 42 44 45 48 51 54 55
40 40 43 43 39 36 31 30 34 35 35 34 41 52 56 61 66 56 51 49 43 51 56 41 39 51 46 35 33 34 35 38 39 39 39 40 42 43 43 43 44 44 44 47 47 47 49 50 51 52 53 54 54 56 58 59 60 59 59 58 55 54 54 55 58 59 59 57 54 52 47 41 39 38 37 38 40 42 44 44 45 47 50 53 57 59
39 39 53 63 53 39 33 33 34 37 39 40 45 47 47 57 65 63 59 50 44 54 55 40 40 49 44 36 35 36 38 40 42 41 41 43 45 46 45 46 49 51 51 51 51 50 51 52 52 53 55 55 55 58 58 59 63 64 63 59 56 55 54 55 59 60 58 58 56 55 52 45 43 43 40 40 42 44 46 47 48 50 53 56 60 63
39 41 68 81 61 40 38 40 40 43 46 46 47 44 42 49 55 57 56 47 44 52 48 41 46 48 41 37 37 38 39 41 43 43 45 47 47 47 49 53 57 58 56 54 53 53 53 54 54 55 58 61 62 63 64 65 68 69 67 63 57 56 54 55 59 59 59 59 58 58 58 51 47 47 44 43 44 46 49 50 51 54 57 61 65 68
36 45 72 75 52 41 45 46 43 44 45 44 43 40 42 47 49 55 59 53 53 56 49 48 57 55 41 37 41 42 42 45 47 49 52 50 47 50 56 61 63 59 56 55 55 56 55 56 57 57 60 65 67 68 69 69 72 73 70 64 58 55 52 52 56 58 59 61 61 65 65 58 53 52 49 47 47 49 52 53 55 59 62 66 70 73
36 42 55 51 41 41 43 42 39 40 44 47 43 39 43 47 47 51 55 52 52 56 56 59 62 55 42 41 48 48 47 50 53 56 56 50 48 57 64 65 62 57 57 58 58 58 57 56 56 56 59 65 70 73 72 69 72 76 72 65 59 55 51 50 53 57 62 65 68 73 72 63 58 57 53 51 52 53 56 58 59 63 67 71 75 80
50 43 41 43 45 42 36 36 36 38 46 48 41 39 44 46 44 44 45 42 43 51 58 59 53 47 47 51 54 52 52 56 57 55 54 52 55 62 62 59 58 56 57 59 59 60 58 56 57 58 64 72 75 77 77 75 77 78 71 63 58 54 52 53 53 57 65 71 76 80 76 68 65 63 59 57 56 57 60 62 63 66 71 75 80 86
65 49 41 44 45 42 41 39 36 39 46 41 33 36 43 45 45 47 45 43 42 41 45 48 48 51 55 56 55 55 56 57 55 50 49 54 59 60 58 57 58 57 57 57 59 58 56 57 61 65 71 74 73 77 80 80 79 74 65 60 56 55 57 59 59 62 69 77 83 83 77 71 70 69 65 63 61 61 64 65 67 70 75 79 85 90
60 48 47 49 47 47 46 43 44 47 44 35 31 36 41 41 40 44 45 42 38 41 48 56 59 59 57 53 51 54 55 53 51 48 47 51 55 57 59 60 58 57 59 60 59 58 59 63 67 69 72 70 69 74 77 75 71 67 62 60 59 60 62 63 64 67 73 83 88 83 76 75 75 74 71 69 67 66 67 67 70 75 80 84 89 91
52 50 50 49 48 47 46 49 53 47 36 32 36 38 43 44 42 48 55 45 36 47 61 66 63 57 53 51 51 52 52 50 49 46 43 47 53 58 60 59 55 56 58 60 60 60 63 65 64 63 65 66 66 68 68 65 64 65 65 64 65 67 66 66 68 74 82 89 87 81 78 79 80 79 76 74 73 72 71 71 74 79 84 88 91 93
49 50 47 47 50 49 50 53 50 44 41 45 48 45 47 48 45 52 62 51 42 54 64 64 61 56 52 55 55 52 50 53 55 49 43 47 55 58 57 54 52 55 58 59 59 59 61 63 62 61 63 64 65 65 64 65 67 68 69 69 71 71 70 72 78 84 90 91 85 82 83 83 83 84 81 78 77 76 74 75 78 83 87 90 92 95
50 45 42 50 55 53 55 58 56 56 54 53 53 49 45 44 39 43 55 55 53 60 62 60 60 57 57 61 59 53 57 68 70 59 49 52 56 56 52 48 50 57 59 57 55 57 59 62 63 65 67 67 67 66 68 70 71 72 74 73 73 75 77 83 89 92 92 90 86 86 87 85 85 87 85 82 79 77 77 79 82 86 89 90 92 95
53 49 44 51 56 55 57 62 65 65 56 54 56 50 43 43 39 40 51 59 62 63 59 57 60 60 62 64 60 60 73 87 84 66 55 57 56 49 46 47 54 61 60 55 55 59 62 65 69 72 71 69 69 71 74 74 73 73 74 74 77 82 86 90 92 92 92 90 88 87 85 84 87 88 88 86 82 80 81 83 86 89 91 92 93 94
64 57 49 51 57 61 63 61 58 54 50 53 55 51 47 41 37 48 63 67 66 62 55 55 60 61 62 63 62 68 82 93 88 70 58 58 53 45 46 53 59 61 57 55 59 64 69 73 76 75 72 71 74 75 74 71 70 71 76 81 84 86 86 87 88 90 92 90 88 86 84 85 89 91 91 89 86 86 86 86 88 91 93 96 97 95
78 70 64 64 65 69 73 68 58 50 51 56 55 51 48 42 46 70 84 75 64 57 51 53 60 61 60 62 67 74 77 75 70 62 56 54 49 46 51 59 60 57 56 60 66 71 75 75 72 72 74 76 75 72 70 70 72 78 85 88 86 84 85 88 90 91 91 88 86 84 84 87 91 94 94 92 89 90 90 89 91 95 97 99 100 99
72 70 69 66 65 67 69 69 65 57 53 57 54 46 48 62 79 88 78 62 54 53 53 56 59 59 60 64 70 74 68 58 57 59 57 51 48 52 58 60 58 57 62 69 71 71 72 72 72 76 77 73 69 70 72 75 80 87 89 85 82 84 90 93 94 92 90 88 87 87 87 88 92 95 97 95 93 93 93 94 97 98 99 100 100 101
58 61 63 58 59 64 66 69 74 68 57 54 55 52 59 77 85 73 57 52 52 52 55 57 57 60 67 72 73 68 61 58 60 59 53 50 54 59 60 59 61 65 69 71 69 69 71 74 77 78 74 70 72 75 76 81 88 91 88 85 87 91 95 97 94 91 90 90 90 91 90 88 90 95 97 98 97 95 95 99 102 101 101 101 102 103
56 63 68 62 59 66 68 65 62 58 52 50 54 60 63 64 60 52 51 56 58 55 55 58 62 67 71 73 71 65 63 65 62 55 54 58 60 60 61 63 66 69 68 68 69 72 75 79 81 78 74 74 76 75 76 86 92 86 82 87 90 91 94 99 96 92 91 92 92 92 90 89 92 97 98 99 100 98 98 101 103 102 103 103 102 102
57 58 63 62 58 59 61 56 47 45 48 50 51 56 57 53 49 47 51 61 66 60 57 65 74 72 66 65 66 66 66 64 58 56 60 64 64 64 65 65 64 66 69 72 74 75 77 81 82 79 77 77 76 75 82 93 93 85 83 89 90 87 92 98 98 95 94 93 93 91 89 91 97 100 100 101 101 101 101 103 103 102 103 103 101 100
51 51 54 56 56 54 49 45 44 47 51 50 49 52 53 50 47 48 56 67 70 64 65 74 75 65 57 60 64 65 63 59 59 62 65 67 68 66 64 63 65 69 73 74 74 75 78 79 78 77 80 80 78 82 91 96 93 90 89 91 91 92 96 98 95 94 92 91 92 91 89 93 98 100 101 103 102 101 101 102 102 101 101 101 101 100
50 52 53 52 59 65 57 45 46 54 56 53 54 54 51 48 48 52 60 67 69 70 72 71 62 54 52 56 60 63 60 59 65 72 71 69 67 64 64 68 71 73 74 74 75 77 78 77 77 79 82 81 82 91 98 96 90 87 88 91 95 96 98 96 93 92 91 90 91 90 88 91 97 100 101 103 102 101 100 100 101 100 100 100 100 99
56 56 60 61 67 71 62 50 51 57 53 51 55 54 50 51 52 51 55 65 73 73 68 59 52 51 54 54 55 60 62 63 71 76 72 66 66 69 72 73 71 72 74 75 76 77 77 78 81 82 82 82 87 94 96 91 90 91 92 95 98 97 96 95 92 91 90 89 89 87 85 89 97 100 100 101 102 101 100 100 101 100 99 99 98 96
61 64 67 71 74 71 62 56 60 65 60 53 52 52 51 53 52 48 54 68 72 66 59 54 52 52 54 55 56 61 67 70 70 70 68 69 73 75 73 71 72 75 76 75 76 77 78 81 83 82 84 89 93 93 90 88 92 96 96 95 96 96 96 94 91 90 90 88 88 86 84 89 98 101 99 100 102 101 100 101 101 100 100 100 98 95
69 73 72 80 89 86 74 66 71 82 81 66 54 52 52 50 50 56 66 71 67 60 56 54 53 52 54 59 62 65 71 73 67 63 68 74 74 71 70 73 77 77 75 76 78 79 81 83 83 85 91 94 91 89 90 91 93 94 95 96 96 97 96 95 93 92 90 88 88 86 84 88 97 101 100 100 101 100 101 102 102 101 100 98 96 97
70 73 75 87 98 90 75 70 77 86 81 64 52 51 50 49 57 70 73 67 61 59 56 54 55 55 57 64 68 67 69 70 65 64 71 75 71 69 73 78 78 76 77 80 80 81 84 85 85 91 97 93 87 89 92 93 93 94 95 97 99 98 98 99 97 94 91 89 89 88 85 88 96 101 100 100 101 100 100 101 101 102 102 99 97 99
Wind_Speed
1 2 2 1 1 3 2 2 4 4 3 2 0 2 4 6 7 5 1 3 0 5 7 8 12 17 17 17 14 8 4 6 8 8 8 7 6 6 6 7 8 8 11 12 14 19 21 23 24 22 23 26 28 31 33 35 37 39 38 38 40 38 35 35 33 32 30 27 23 19 17 16 14 13 14 15 15 15 15 15 16 14 14 13 13 13
2 3 1 2 3 4 4 4 4 4 3 1 2 3 4 5 6 3 2 2 1 3 6 6 13 18 15 14 10 4 3 5 5 6 7 7 6 6 6 8 8 7 9 11 14 18 18 21 22 21 24 25 26 29 31 34 37 37 37 39 41 38 37 38 37 34 33 31 27 21 17 16 14 14 14 14 13 14 15 16 16 15 15 14 14 14
2 2 3 5 5 6 6 4 3 3 2 1 2 3 4 2 5 3 3 4 3 2 6 7 12 16 13 10 7 2 3 4 4 5 6 6 7 6 6 6 7 8 9 9 12 14 14 16 19 19 23 25 26 29 30 33 35 35 37 40 40 39 39 40 39 38 36 33 31 27 22 18 16 15 15 16 17 17 17 17 17 16 16 15 15 15
2 1 5 5 5 6 5 3 3 2 2 3 2 3 4 2 3 3 2 1 4 4 6 8 10 12 8 5 3 2 3 4 4 6 7 7 8 8 6 6 7 9 10 9 10 13 13 13 14 17 21 24 25 28 31 32 33 34 37 40 40 40 40 40 40 40 38 34 31 29 27 23 20 18 16 16 18 19 19 18 17 17 18 17 16 15
1 3 4 5 3 3 3 3 4 2 2 3 4 3 4 2 3 4 3 8 8 3 4 8 8 5 2 3 3 3 3 4 3 5 8 8 9 8 8 8 9 9 9 9 10 12 13 14 14 15 19 22 24 28 32 33 33 35 38 39 39 39 40 41 41 40 37 34 31 27 24 22 21 19 17 16 17 17 17 17 16 16 17 17 16 15
1 2 3 5 3 2 3 3 4 4 3 2 4 3 2 2 3 6 8 9 7 2 2 4 6 1 4 3 3 2 1 3 3 3 6 5 6 6 6 8 7 7 8 7 9 11 13 15 16 18 19 20 24 29 31 32 32 35 37 37 37 38 39 40 40 39 36 35 32 26 22 19 17 17 17 18 17 15 15 15 14 14 15 15 16 16
2 2 2 3 3 3 3 3 3 4 3 2 1 2 2 1 4 7 7 6 5 4 1 1 5 3 1 3 3 2 3 3 2 3 4 3 3 4 5 5 4 5 5 5 7 10 11 13 14 17 20 19 23 29 30 30 31 33 34 35 36 37 38 39 39 38 37 36 33 29 25 22 19 18 17 17 15 14 13 13 13 13 14 15 16 16
4 4 3 2 3 4 3 3 4 6 4 1 3 3 1 2 6 5 5 3 4 6 2 1 2 4 5 2 3 2 3 3 3 5 4 3 3 3 3 4 4 4 4 4 6 8 10 13 13 16 20 22 24 28 29 29 31 31 32 33 34 35 37 38 38 38 38 38 35 31 28 24 23 22 19 15 14 14 14 13 14 14 14 15 15 16
3 4 6 5 4 4 2 1 4 7 3 1 4 1 0 2 3 2 3 3 2 5 2 3 0 4 5 2 3 1 4 6 6 5 4 3 3 3 3 3 2 3 3 4 6 9 12 14 16 17 20 25 29 29 29 30 30 30 30 30 31 33 36 36 37 38 39 40 37 32 28 27 24 23 20 16 15 15 14 15 15 14 14 14 15 16
1 1 3 4 3 2 1 3 2 4 1 3 5 2 2 2 0 1 2 2 1 4 2 3 1 3 5 3 2 2 3 5 6 5 4 4 4 4 3 2 3 4 4 5 6 10 13 14 18 22 23 27 30 29 30 30 30 29 29 29 29 32 34 34 36 37 38 40 38 34 31 29 25 21 19 17 17 16 15 15 15 15 14 14 14 15
2 1 1 1 1 1 3 2 1 1 2 4 4 2 2 3 1 1 1 1 2 4 1 3 2 3 5 4 2 3 2 2 2 3 3 4 5 4 1 3 5 5 5 6 7 11 14 16 19 21 21 23 27 29 30 31 30 29 29 28 29 32 33 33 34 36 37 38 39 38 35 31 28 23 19 18 18 17 17 16 16 15 15 14 14 14
2 2 1 1 1 1 2 2 1 1 1 2 2 3 3 2 2 2 2 2 4 3 3 3 2 3 4 4 1 2 1 2 2 4 6 6 5 3 5 6 6 6 6 7 8 10 13 15 17 19 19 21 23 25 26 28 30 30 29 28 28 31 32 32 33 35 37 36 38 40 37 33 30 26 22 21 20 19 18 18 16 15 14 14 14 15
2 2 2 2 1 0 2 3 2 2 3 3 2 2 4 4 1 2 2 2 3 1 3 2 2 3 8 8 6 5 5 4 4 4 5 7 8 8 8 8 6 6 7 8 8 9 10 13 16 17 19 19 19 21 23 25 27 28 29 28 27 31 33 31 31 34 35 36 38 40 38 35 30 27 26 25 23 21 20 19 18 16 15 14 14 15
1 2 2 2 2 1 2 3 1 2 2 2 2 2 4 4 4 4 3 2 3 0 3 2 3 4 7 7 7 8 5 1 1 2 4 6 7 8 8 7 6 7 8 8 8 9 10 13 17 17 18 18 19 22 24 24 24 25 27 29 28 31 34 31 31 32 34 36 39 39 38 35 30 27 28 27 24 23 23 22 20 18 17 15 15 16
3 1 1 1 0 1 2 2 3 1 1 0 1 2 2 2 4 5 3 3 4 3 1 2 1 4 3 3 1 3 4 4 4 3 3 2 3 5 6 6 7 8 8 8 9 10 13 16 18 17 17 18 20 23 24 24 25 24 25 27 27 30 34 32 31 32 33 36 37 36 36 36 33 29 27 26 26 27 28 27 23 20 18 17 16 16
3 2 2 1 2 1 1 0 2 1 1 1 1 2 2 1 2 2 2 2 2 4 2 3 3 4 3 5 4 3 2 2 4 3 3 2 1 4 5 6 7 8 9 10 11 12 15 17 18 17 17 19 22 24 24 25 27 26 26 26 26 28 32 32 32 32 34 35 35 34 35 37 35 31 28 26 28 32 34 31 27 23 21 18 16 15
2 1 3 1 0 1 2 1 1 3 1 2 2 2 1 2 2 2 0 1 1 3 3 3 5 6 4 5 3 2 3 5 6 4 5 5 5 5 7 8 9 10 11 12 12 13 16 18 18 16 18 21 23 25 25 26 26 26 26 26 27 27 28 30 32 33 33 33 33 34 35 36 36 35 34 30 30 34 35 32 29 26 22 19 17 16
2 2 2 1 1 3 2 1 1 2 2 1 2 1 2 0 1 1 2 1 2 5 3 3 6 7 4 3 2 5 7 8 7 8 10 11 11 10 10 10 11 13 14 15 15 15 17 19 18 17 19 22 24 25 25 26 26 25 25 25 27 28 28 29 29 29 30 31 33 34 35 36 37 38 38 34 33 33 33 31 30 27 24 20 18 17
2 3 1 1 0 2 0 3 1 2 2 2 0 2 1 2 2 2 2 3 3 6 4 3 3 5 4 3 2 6 10 11 10 11 13 14 12 11 11 12 14 15 15 15 15 14 15 18 17 17 21 23 24 25 25 26 26 26 26 26 27 27 28 29 28 27 29 31 33 36 37 37 37 37 37 36 35 32 32 33 32 29 26 21 18 18
1 2 1 1 0 0 1 3 3 3 3 1 1 1 0 2 3 1 1 2 3 6 6 2 1 3 3 1 2 7 9 9 10 11 11 12 12 11 10 12 14 16 15 15 15 14 15 17 16 17 22 23 24 25 25 26 27 27 28 29 29 30 30 29 28 27 27 29 32 34 36 35 35 35 37 38 36 34 34 36 34 32 28 22 19 18
2 2 3 1 2 2 2 3 2 2 3 3 4 3 2 1 1 2 2 1 2 5 6 4 4 3 1 2 1 6 6 5 8 11 10 11 13 12 12 14 16 16 16 15 15 14 15 15 16 19 22 23 24 25 26 27 28 28 29 30 31 32 31 31 30 27 26 27 28 29 32 34 34 34 35 36 36 37 38 37 35 33 29 23 20 19
1 2 3 2 3 4 1 2 2 2 0 1 3 4 3 3 1 3 4 1 0 4 4 4 7 4 1 2 1 3 4 5 8 11 12 13 15 15 15 16 16 16 16 16 15 15 14 14 17 21 22 23 25 26 28 29 29 29 29 30 32 32 31 31 31 29 29 29 27 27 30 32 31 31 32 32 34 36 37 37 35 33 29 23 21 20
1 1 3 5 6 2 2 4 2 2 1 0 2 1 1 2 3 5 5 1 1 2 1 1 5 4 0 2 2 1 3 6 10 12 14 15 15 16 17 17 17 17 17 17 16 14 12 15 19 21 23 26 28 29 31 31 29 29 29 28 29 31 32 31 31 31 30 30 30 29 29 28 28 29 30 30 33 35 36 36 35 33 30 25 21 20
1 1 2 6 5 1 4 3 2 2 0 2 1 1 2 1 0 2 2 1 1 3 2 4 6 3 1 4 3 4 7 9 12 14 16 16 16 17 18 17 18 18 18 18 15 12 13 16 19 20 21 26 29 30 31 32 31 30 28 27 28 30 31 30 30 31 30 30 32 32 29 26 27 28 28 29 31 35 36 34 33 32 30 26 22 19
2 1 1 4 6 2 2 1 1 0 1 3 1 1 1 2 3 1 1 1 2 5 6 8 8 3 1 2 8 13 13 14 16 16 17 18 17 17 18 18 18 18 18 18 15 12 13 16 18 20 21 23 26 26 26 28 29 29 29 28 28 28 29 28 28 29 28 29 31 32 29 27 26 27 28 28 31 34 35 33 32 32 30 26 22 19
2 1 2 4 6 5 5 4 2 2 0 1 1 2 2 2 3 1 2 2 4 3 5 7 9 9 9 12 15 15 15 17 18 18 17 17 16 18 20 19 18 18 18 19 15 12 14 17 22 26 27 25 24 22 21 22 24 28 30 29 27 27 28 27 27 28 28 28 29 30 30 27 25 26 28 30 31 32 32 32 32 31 29 25 22 19
1 2 4 7 9 8 7 5 2 2 4 6 3 2 3 3 2 1 2 3 3 3 4 8 11 14 16 17 15 15 17 19 18 19 18 17 19 21 20 18 18 18 18 17 16 16 19 22 26 31 32 29 26 22 21 22 23 25 26 26 27 29 30 29 28 29 29 28 28 28 28 27 25 26 28 31 31 30 30 31 31 29 27 24 22 20
1 3 3 6 10 9 9 9 3 1 7 10 7 3 3 4 4 4 6 7 3 4 7 6 8 13 16 17 17 17 18 18 19 20 20 20 22 22 20 20 20 19 18 18 19 22 23 23 25 29 32 33 30 27 26 26 25 23 23 25 29 32 33 32 30 29 28 27 26 27 27 28 28 27 27 30 30 29 29 29 29 28 26 24 22 20
2 4 0 0 7 7 8 11 7 3 5 6 7 8 3 4 7 7 9 10 5 5 10 11 13 15 16 18 18 16 16 18 20 21 21 22 23 22 22 22 20 19 20 21 22 24 24 23 23 27 32 35 35 35 35 32 28 25 25 28 31 33 35 33 28 27 27 25 25 27 28 28 30 29 27 26 27 27 28 29 29 28 26 24 22 20
2 2 1 0 7 7 5 6 3 1 3 4 5 7 4 4 8 8 10 11 8 10 14 17 20 18 13 14 15 16 17 18 19 20 22 23 24 23 23 21 18 19 22 23 23 24 24 24 25 30 35 36 36 37 35 31 28 28 28 30 34 36 38 34 29 27 26 24 24 27 30 30 30 30 27 26 26 27 27 28 28 27 25 24 22 20
1 1 3 1 6 5 1 1 1 3 5 4 3 3 2 4 5 6 7 8 7 10 14 14 15 13 8 10 15 17 17 18 19 22 23 23 24 24 21 19 18 21 24 24 24 25 25 26 27 30 34 34 35 36 32 26 25 25 27 32 37 39 41 38 33 30 26 22 21 25 32 32 30 29 27 26 27 27 27 27 27 26 25 24 22 21
1 2 1 1 6 3 3 1 3 2 3 3 2 2 1 3 3 3 5 6 6 11 14 11 9 9 10 14 19 19 19 20 20 21 21 22 23 20 16 18 21 24 24 25 25 26 26 26 27 30 34 35 35 35 32 27 23 22 28 37 41 42 43 40 36 32 26 21 21 25 31 31 29 28 27 26 26 27 27 26 26 25 24 23 22 20
0 2 1 1 4 3 1 6 7 1 3 2 2 4 7 8 8 7 7 8 7 7 10 9 8 11 15 18 21 22 23 22 20 19 20 21 19 15 15 20 24 24 24 24 24 24 24 25 27 32 35 35 34 34 32 26 22 26 35 42 45 44 42 38 37 34 28 23 24 27 30 30 28 27 27 26 26 26 26 26 26 26 25 24 22 19
1 1 1 0 3 4 5 10 10 4 2 1 5 7 9 9 9 9 10 12 10 5 5 9 11 15 18 19 22 24 24 22 21 21 21 18 13 14 20 25 24 23 23 23 23 23 24 27 31 34 36 35 35 35 31 26 27 34 40 43 44 43 40 37 37 36 30 25 24 26 29 30 29 27 26 25 26 26 26 26 27 26 24 23 21 19
2 1 1 1 2 4 5 7 7 3 1 1 4 5 9 7 8 10 11 13 10 5 6 11 14 17 19 20 21 22 22 22 23 22 19 14 13 17 22 23 23 23 22 22 22 24 27 31 34 35 37 37 36 35 33 31 34 38 40 41 41 40 39 38 38 37 30 23 22 24 27 29 30 28 25 23 24 26 27 27 27 26 24 22 21 19
3 2 1 1 1 3 2 3 3 3 3 2 2 6 10 7 7 10 11 8 3 5 11 15 17 19 21 22 21 19 22 24 20 16 13 13 16 19 20 20 21 22 22 23 25 28 31 35 36 36 37 38 37 36 35 36 37 38 39 40 39 38 39 38 37 34 28 20 19 22 25 28 29 27 24 22 22 24 27 28 27 26 23 21 19 17
2 2 1 1 1 1 1 2 4 6 3 4 4 7 9 8 8 9 11 7 4 9 14 17 20 23 23 22 21 20 22 22 16 10 12 15 18 20 20 20 22 23 25 30 33 35 37 37 37 38 38 39 39 38 37 38 39 39 39 39 37 37 38 37 33 29 22 18 21 24 27 30 29 26 24 22 21 24 27 29 28 26 23 21 18 15
1 0 1 2 1 1 2 3 3 5 1 4 6 9 7 7 8 7 8 5 5 14 18 19 21 25 23 21 22 21 19 18 14 10 13 18 19 20 21 24 27 27 30 36 39 40 41 40 39 39 38 38 39 38 37 39 39 38 38 37 36 36 36 32 28 24 21 21 23 25 30 33 31 27 25 24 24 26 28 28 27 25 23 22 20 16
3 2 1 1 1 1 1 2 2 3 0 4 9 11 7 4 5 4 5 3 8 17 20 19 21 23 21 20 22 19 14 12 12 13 16 20 21 21 21 24 29 32 35 38 39 39 39 39 38 38 38 38 38 39 39 40 39 37 36 35 34 33 31 29 28 27 25 24 25 26 31 34 32 29 26 24 25 26 27 27 25 24 23 21 18 15
3 3 1 1 1 1 0 1 3 3 1 7 11 11 9 3 4 2 6 5 11 19 18 18 21 21 19 19 18 15 11 10 11 15 19 22 25 26 26 26 28 32 35 37 38 38 38 37 35 36 36 36 36 39 39 38 37 36 35 33 31 30 29 30 32 30 27 26 27 28 31 33 32 29 27 25 25 24 25 26 24 22 20 16 13 12
2 1 1 1 1 1 1 2 4 3 2 9 12 12 13 6 2 2 8 8 15 21 18 18 20 19 18 18 15 12 11 12 15 17 20 23 25 28 30 30 30 33 34 33 34 35 35 35 34 34 32 32 36 39 38 37 36 34 32 30 30 30 30 32 32 30 28 29 30 30 31 32 30 28 27 26 24 22 23 24 22 20 17 12 10 10
2 1 1 1 1 1 1 2 5 2 3 10 12 10 12 9 3 5 9 11 16 20 19 19 19 17 18 19 16 13 14 17 18 18 20 23 23 24 28 31 32 34 34 34 35 35 36 36 35 32 32 35 39 39 37 37 35 31 29 30 32 32 32 32 32 32 32 32 31 31 32 32 29 27 26 24 22 21 21 20 19 18 16 12 11 13
2 1 2 1 0 1 1 2 4 3 4 13 15 9 8 8 6 9 13 15 17 18 17 17 17 16 18 18 17 17 18 19 19 20 22 23 22 23 27 29 30 33 34 35 36 37 38 37 33 32 35 38 38 36 37 37 33 29 30 31 33 34 34 33 34 35 34 32 30 31 32 32 30 28 25 22 20 20 20 18 17 17 16 14 13 13
0 1 3 2 1 0 2 2 5 6 7 13 14 9 7 9 10 12 14 15 16 15 15 15 16 17 17 16 17 18 18 18 20 21 22 21 20 23 27 29 32 33 35 36 37 38 38 36 32 34 37 36 35 36 37 34 30 32 34 34 37 41 38 35 35 36 34 32 30 31 32 31 28 26 23 19 19 19 19 18 18 16 16 16 12 9
3 3 3 3 1 2 5 6 7 8 9 11 11 9 10 13 15 16 16 14 14 14 14 14 15 16 17 17 18 17 16 18 20 20 20 18 18 22 27 31 33 33 34 35 35 36 36 33 31 34 36 35 35 37 34 28 30 35 36 36 40 43 39 36 37 37 35 33 31 32 34 31 25 23 21 18 17 17 16 18 18 14 13 13 10 7
3 3 2 3 3 6 6 5 7 10 11 14 13 9 11 15 16 17 16 13 13 14 14 13 13 15 16 17 17 16 16 18 19 18 18 17 19 25 30 32 32 33 33 34 35 36 36 34 35 37 37 38 39 36 30 29 31 33 36 38 40 39 37 38 38 37 35 34 33 33 34 29 21 17 16 15 15 14 13 15 15 11 9 9 8 7
2 4 4 4 5 7 5 4 10 14 15 17 13 10 13 18 17 15 15 15 15 14 13 13 15 16 16 16 16 17 18 18 17 17 17 17 20 25 29 30 32 33 32 32 33 35 35 35 37 38 38 40 40 34 31 33 34 35 37 39 38 38 38 38 37 36 36 36 34 32 31 26 18 12 10 12 13 11 10 11 11 9 8 9 9 8
3 5 6 6 7 7 7 9 15 15 13 13 11 11 16 19 18 18 18 17 15 16 16 18 18 16 15 16 17 17 17 17 16 16 16 17 19 24 27 29 32 33 33 32 32 33 34 35 37 38 38 39 37 34 34 36 36 36 39 39 37 38 39 37 37 37 36 35 33 30 28 24 17 10 7 10 12 11 9 10 10 9 9 10 10 10
6 6 7 8 8 7 8 12 16 14 10 9 13 16 17 17 18 21 19 16 16 16 17 20 20 17 16 18 19 17 15 15 18 19 17 16 19 24 28 30 31 31 31 32 32 32 33 34 36 38 38 35 34 35 37 38 36 37 39 40 39 39 39 38 38 37 35 33 30 28 26 21 13 7 6 8 10 10 10 12 12 10 9 10 13 13
6 5 7 8 7 7 9 13 15 13 10 11 17 20 18 18 19 19 15 15 15 15 16 19 21 21 20 19 19 18 14 14 19 23 20 17 22 27 29 31 32 31 31 32 32 32 32 33 36 36 33 31 34 37 38 37 37 39 40 40 40 39 40 40 39 36 33 30 27 26 26 22 12 7 6 6 7 8 9 12 14 13 12 12 15 15
6 7 8 7 6 8 12 13 12 11 11 15 19 18 18 20 18 13 13 14 14 16 19 19 19 20 20 19 21 20 16 17 23 26 21 20 24 27 27 28 30 30 31 32 33 35 36 37 37 33 29 32 38 39 37 37 39 41 41 41 40 41 42 42 39 33 30 29 27 25 26 23 14 7 5 5 5 5 6 8 11 13 14 14 14 13
Wind_Direction
286 235 199 252 95 132 136 87 81 89 89 102 199 277 272 282 292 290 351 88 44 287 269 267 281 285 286 287 294 305 287 263 262 260 263 265 263 263 262 264 263 261 267 277 283 281 278 279 275 270 269 269 267 267 264 260 258 256 252 249 250 250 247 246 245 245 245 246 246 246 246 248 249 245 248 258 260 261 261 261 260 252 245 245 248 252
249 256 174 110 93 117 130 123 108 105 94 100 233 278 272 264 282 306 78 139 147 304 282 292 297 287 283 288 298 313 278 259 248 248 257 261 264 266 262 266 268 270 278 284 284 282 281 281 279 273 271 269 265 265 264 262 261 258 253 251 250 248 247 246 245 243 245 246 244 241 240 242 241 239 243 247 245 250 258 260 257 249 242 241 244 249
248 230 119 109 113 108 109 128 115 104 121 183 227 271 289 293 290 296 114 154 178 279 299 318 304 290 290 295 298 290 250 259 258 252 260 267 268 265 260 266 276 280 283 283 282 282 282 284 284 279 276 273 270 269 267 265 264 259 254 253 251 247 246 247 245 243 244 246 247 246 244 242 242 244 245 249 250 254 259 258 254 248 242 240 241 245
285 125 109 118 139 131 117 128 125 122 178 218 245 276 295 356 326 282 121 208 254 253 290 300 288 284 291 280 248 195 229 262 265 253 255 259 257 262 270 275 275 276 280 283 285 289 292 292 288 284 284 284 279 276 273 269 265 261 258 256 253 249 247 247 246 245 244 245 246 248 248 246 247 249 248 251 254 255 257 256 250 247 246 241 238 241
330 55 105 133 166 168 143 148 177 222 236 215 226 254 284 315 298 268 301 311 289 224 259 289 279 261 229 220 211 160 206 248 245 245 247 240 241 254 271 271 259 258 269 282 290 297 304 305 301 296 294 293 289 285 283 278 272 268 267 263 258 253 251 249 248 246 243 242 242 242 243 244 245 247 244 242 244 242 244 247 242 241 243 239 236 238
82 68 144 149 160 184 179 196 202 232 278 234 212 224 276 302 280 279 303 314 296 206 166 309 302 234 151 211 232 142 238 244 185 235 251 231 225 233 252 262 254 251 258 267 280 292 299 302 304 306 304 301 298 298 297 291 284 279 275 270 263 259 255 252 250 247 242 239 238 233 228 228 229 234 233 231 233 229 228 234 235 234 234 234 237 240
104 107 188 167 166 174 204 244 202 197 264 302 159 147 133 230 286 295 310 317 302 301 30 333 295 283 246 234 191 108 307 283 173 230 256 248 229 218 238 261 270 273 273 270 277 285 292 297 302 308 311 309 305 309 309 303 297 291 284 277 269 264 260 256 252 248 242 238 236 231 226 226 225 230 234 231 229 227 226 230 231 231 232 233 239 240
124 145 189 188 181 190 224 254 183 184 254 318 130 136 135 278 292 301 303 284 291 310 305 159 271 274 282 262 120 77 289 253 199 208 220 242 251 241 246 256 268 284 304 308 301 303 304 306 307 307 313 315 315 317 317 312 308 301 294 285 276 270 265 260 255 251 245 240 236 232 229 229 230 232 237 233 228 228 229 231 232 233 235 234 236 237
124 174 186 178 190 215 242 2 159 187 257 54 133 148 321 291 293 280 280 271 290 304 257 145 167 267 265 227 120 122 243 215 203 200 207 230 242 256 264 266 288 322 332 316 307 309 308 307 309 311 314 321 325 325 323 320 316 309 302 293 284 276 270 264 259 254 249 244 239 234 230 230 231 233 235 233 231 230 228 230 231 231 234 233 233 233
85 197 191 188 209 224 92 49 156 196 307 107 137 127 121 141 186 206 268 273 244 274 241 116 39 282 276 263 160 168 222 215 206 204 219 235 241 247 254 317 0 0 342 324 311 304 303 304 311 318 320 325 330 331 329 327 323 316 308 299 290 284 276 268 262 257 252 247 241 236 234 232 232 229 228 229 229 228 226 227 228 227 231 233 232 232
87 49 248 215 278 51 92 71 20 27 66 132 165 207 188 167 152 179 230 258 248 249 154 81 357 306 300 284 206 172 181 177 200 239 258 251 248 238 171 34 13 359 337 324 313 305 305 308 315 321 323 327 332 333 334 332 328 321 313 304 296 292 285 273 267 261 255 250 243 240 237 235 233 228 223 224 224 222 220 221 224 226 230 233 233 234
123 185 184 82 11 50 130 133 81 69 166 191 226 276 273 231 174 192 185 186 254 267 110 83 330 279 266 264 193 129 124 153 204 271 281 279 292 347 24 15 359 344 326 315 308 306 310 314 320 324 324 326 330 332 333 332 330 325 318 310 300 298 293 280 272 266 259 253 247 243 240 237 236 230 225 225 225 221 217 217 220 222 227 230 231 232
169 168 108 85 59 306 223 198 152 165 199 237 262 293 298 300 274 254 250 217 256 315 110 99 351 262 250 261 259 252 248 218 216 257 296 319 335 351 354 344 338 327 314 308 305 309 313 318 323 324 325 328 329 331 332 331 330 326 322 315 303 302 302 289 277 272 264 257 252 248 243 239 237 232 229 230 229 224 219 218 217 218 222 224 226 228
235 121 116 154 141 57 260 246 231 181 186 245 281 309 303 320 316 286 282 266 271 348 125 113 347 273 261 277 257 247 263 44 91 326 341 345 331 324 321 315 308 300 297 300 306 314 320 323 325 325 327 331 332 333 333 332 331 327 324 322 312 308 308 297 285 278 270 263 259 252 246 242 238 233 231 231 230 226 224 223 220 218 220 223 226 227
267 244 131 161 94 10 249 286 339 4 132 193 10 325 282 289 290 284 297 282 286 324 135 141 285 249 250 337 312 264 308 13 42 26 5 338 295 293 289 284 290 297 304 314 321 325 326 325 326 327 331 335 336 335 335 335 334 331 328 326 319 315 315 306 292 283 276 271 264 255 248 244 239 236 234 232 231 231 231 230 226 221 220 223 227 229
260 268 69 47 312 317 225 37 352 312 158 111 92 269 263 260 268 272 326 313 321 322 257 192 238 243 253 308 308 289 281 75 78 73 52 23 263 268 288 306 320 322 326 329 329 328 327 327 328 330 336 338 337 337 336 335 335 334 331 329 323 320 319 313 302 292 283 277 269 258 252 248 242 237 235 232 232 236 236 234 232 227 225 225 226 228
268 266 104 145 196 50 343 346 353 314 311 141 202 236 87 25 301 250 266 82 135 269 247 196 256 268 278 291 299 38 78 96 92 69 30 358 330 321 330 339 337 333 333 332 331 329 328 330 333 336 341 340 337 336 335 334 333 333 332 330 328 324 320 315 309 300 290 282 274 265 257 251 246 241 237 233 233 237 237 235 233 231 229 226 223 223
287 280 124 165 133 88 338 287 88 10 334 241 224 119 102 10 290 240 269 262 218 255 247 184 254 280 295 295 8 48 25 18 25 16 356 344 342 343 343 341 339 337 335 331 330 328 328 331 335 340 341 339 337 334 332 332 332 331 331 330 328 325 322 319 314 305 297 289 279 271 264 257 251 246 241 237 235 235 235 232 231 229 228 224 220 220
278 276 121 123 185 103 151 252 182 94 21 321 298 103 120 257 231 172 269 290 273 277 267 193 237 272 255 255 347 22 11 0 359 353 341 338 342 342 339 340 340 337 332 329 329 327 328 332 337 340 339 337 336 334 333 332 332 332 332 330 328 326 324 322 318 309 303 297 287 278 272 264 255 248 243 239 236 232 231 231 230 229 229 223 217 217
212 277 294 131 177 28 176 224 225 148 111 72 188 161 50 292 276 254 280 298 281 284 288 267 225 252 227 179 356 357 4 356 341 337 332 332 336 338 341 341 339 335 330 327 326 325 329 334 337 339 337 335 335 335 335 335 334 335 334 333 331 328 325 324 321 314 306 301 293 285 277 268 257 250 246 242 237 232 231 232 231 230 230 224 215 213
157 227 274 157 166 259 219 202 242 188 151 167 189 193 175 182 278 285 253 231 271 278 287 287 267 254 143 133 317 345 358 345 332 331 325 329 337 341 343 340 335 330 325 324 324 325 331 335 336 336 335 335 335 335 338 337 336 335 334 334 333 330 327 325 323 319 313 306 296 286 280 273 262 252 247 242 238 235 234 232 231 231 230 224 217 214
190 210 266 260 236 250 212 76 2 336 331 213 219 214 199 178 184 259 256 178 114 269 280 296 286 286 101 163 235 347 343 334 336 333 331 335 338 338 337 335 330 324 322 324 323 326 332 334 334 333 334 336 336 336 337 336 335 333 333 334 333 331 328 326 324 322 320 316 305 292 285 277 265 253 245 239 236 235 234 232 231 231 228 222 218 217
306 243 257 263 264 268 74 71 30 358 24 294 280 248 179 177 205 251 273 298 175 238 16 329 274 277 298 188 195 289 328 345 345 338 336 335 332 332 332 329 326 322 322 323 323 327 332 331 329 331 334 336 335 334 333 333 332 331 330 332 333 331 327 325 324 322 321 320 313 303 292 278 265 256 247 238 236 235 233 231 229 229 228 223 220 219
208 240 244 266 270 165 117 120 99 34 44 222 239 167 181 196 210 273 298 356 263 227 228 269 261 260 159 173 207 302 333 345 343 340 337 330 327 329 329 327 325 323 323 323 325 329 328 324 324 326 330 332 331 330 330 330 329 327 326 327 329 329 325 322 321 319 318 319 316 310 299 281 267 259 248 237 237 236 232 229 227 227 227 224 220 219
225 225 208 286 294 266 188 181 173 17 217 228 219 135 166 89 76 64 146 116 269 231 222 257 269 263 189 258 302 320 333 338 338 337 333 327 326 328 329 327 324 322 322 324 327 329 323 319 319 320 321 323 323 322 322 323 325 323 321 320 321 324 324 322 320 317 315 316 316 313 303 286 269 258 248 240 238 237 232 228 225 225 226 223 219 217
262 242 203 271 287 285 293 310 322 336 315 199 161 144 184 143 130 230 258 246 261 225 197 241 268 283 293 298 306 318 331 334 332 330 328 326 326 328 328 325 322 322 323 326 329 325 318 317 319 320 319 317 315 313 311 314 318 317 316 316 317 318 321 321 320 318 314 313 314 312 305 292 273 258 252 246 241 236 231 226 225 225 224 221 217 215
272 260 233 243 254 266 294 318 16 2 298 288 283 182 166 148 155 216 266 257 264 282 246 233 252 279 289 294 306 324 333 332 328 326 327 328 328 328 326 321 320 323 327 332 331 324 321 323 323 323 322 318 313 308 304 305 311 313 312 313 317 320 321 321 320 318 313 310 312 311 305 297 282 265 257 253 245 236 230 226 224 223 221 220 217 215
265 267 237 241 253 264 293 303 309 288 281 290 302 283 163 137 154 186 229 250 279 311 283 241 236 268 286 299 314 329 332 328 327 328 329 330 330 328 322 319 323 329 333 333 329 327 326 324 324 324 322 319 315 310 306 303 304 308 309 312 319 322 321 318 314 313 311 307 308 311 308 301 293 279 264 256 249 238 230 226 223 221 221 220 218 216
252 271 329 236 267 266 277 283 283 278 272 272 276 278 261 161 174 194 233 252 252 257 273 281 279 281 292 304 315 328 330 327 329 329 329 330 328 322 320 325 332 335 333 329 327 328 327 324 324 324 322 320 317 312 309 306 303 305 310 315 319 320 318 314 308 307 307 302 302 309 311 306 299 290 273 256 247 237 229 226 222 221 221 220 218 216
229 265 78 108 285 286 273 278 297 142 242 252 254 270 272 207 207 217 245 262 257 246 261 279 286 287 290 298 312 327 330 330 330 328 329 330 325 321 324 332 336 332 329 328 327 327 326 325 324 323 321 319 316 312 308 305 306 309 313 317 319 319 318 314 305 302 301 295 297 308 313 310 302 293 278 258 247 238 230 226 222 221 220 220 219 217
240 301 72 85 295 302 102 86 74 163 224 260 247 235 240 232 225 226 252 272 270 262 268 275 282 287 296 315 325 329 331 333 333 331 332 329 324 324 330 336 333 329 329 329 328 328 328 326 324 323 321 318 318 317 311 305 308 312 313 316 318 318 319 315 307 302 298 290 294 309 314 312 305 295 280 261 249 239 231 226 222 220 220 219 220 220
237 278 65 29 304 299 119 25 309 185 201 248 215 162 26 336 308 265 261 267 263 279 293 293 288 305 330 335 330 327 331 336 335 333 330 324 322 327 334 336 332 329 329 328 329 330 328 327 328 327 324 323 325 325 320 314 311 310 312 316 317 318 319 315 309 304 297 290 298 310 314 312 306 295 280 263 249 239 231 226 222 220 220 219 221 219
231 259 332 8 296 279 27 332 318 227 172 209 154 74 17 349 325 303 288 280 259 266 297 306 310 326 333 334 330 330 334 337 335 333 326 320 324 331 335 335 332 330 329 327 327 328 327 327 328 327 327 329 330 330 327 322 313 310 314 317 317 317 316 313 310 307 298 292 302 310 312 312 307 295 281 264 249 238 230 225 222 220 220 220 221 217
164 246 315 81 268 288 333 328 307 254 218 60 101 64 11 340 320 316 305 294 285 268 290 310 324 332 333 335 334 332 331 330 330 328 321 319 330 337 334 333 331 328 327 326 326 327 328 328 328 329 332 333 332 331 327 318 310 311 315 317 317 316 315 313 312 308 300 295 303 308 310 312 309 298 283 265 249 237 229 224 223 221 220 220 219 215
153 192 213 161 249 290 332 331 307 271 9 65 118 58 2 319 296 303 290 277 282 310 341 333 332 335 335 334 332 327 323 323 324 321 317 326 344 340 332 330 328 326 325 326 328 329 330 332 333 334 335 333 330 327 321 316 315 317 318 319 317 317 316 314 312 310 306 303 306 309 311 313 310 300 284 264 246 235 229 225 222 220 219 220 219 218
161 166 185 178 245 282 326 351 323 322 8 70 98 19 358 332 313 320 304 281 292 20 1 343 335 337 336 331 327 325 321 320 319 317 324 342 346 336 329 327 326 325 326 329 330 331 333 335 334 333 332 329 327 325 323 323 323 323 321 320 319 318 317 316 314 313 312 310 311 313 315 315 310 300 284 263 243 232 228 225 222 218 217 219 218 218
165 160 194 227 222 303 298 269 281 292 321 76 42 355 345 324 316 323 310 300 44 31 358 345 340 336 332 327 326 326 324 320 317 321 338 343 338 331 327 325 324 326 330 333 332 332 333 333 333 332 331 328 327 328 328 328 328 326 323 322 322 321 318 315 314 317 317 315 316 319 319 316 311 300 284 264 243 232 228 224 221 217 216 216 215 212
32 335 301 278 245 75 299 285 293 289 266 81 7 340 334 298 285 290 280 270 37 17 356 346 338 331 328 328 329 329 326 320 316 324 338 338 334 332 329 327 330 334 337 336 334 332 332 331 331 331 330 329 329 330 331 330 329 327 325 324 324 321 319 320 325 328 323 318 319 321 320 316 310 300 287 266 246 236 230 224 220 217 215 217 216 214
32 19 52 296 285 81 294 294 305 278 202 44 350 341 352 307 267 263 253 249 19 3 349 341 332 327 328 328 328 328 324 317 317 327 336 336 335 335 333 332 336 338 337 336 333 330 329 329 328 330 332 332 332 333 333 332 331 330 327 326 325 324 329 335 334 327 320 318 323 324 320 317 312 302 288 268 252 242 231 223 219 216 216 217 216 216
38 12 11 323 318 49 259 281 286 260 29 14 348 347 357 321 201 252 286 311 356 348 340 336 328 324 327 325 324 324 318 318 323 325 330 334 334 334 335 336 338 338 335 333 331 328 327 329 330 332 333 334 334 334 333 332 331 329 325 325 329 333 336 333 325 320 321 325 328 326 322 319 315 306 292 273 257 245 231 223 218 215 214 213 210 214
51 1 9 15 357 8 210 271 295 265 49 4 348 358 359 335 209 307 313 320 337 332 329 330 325 321 324 321 319 320 320 324 324 321 328 334 331 331 335 337 338 336 333 330 329 329 329 331 332 330 331 335 335 333 332 331 327 323 322 328 334 333 329 326 327 330 333 332 330 327 324 321 316 308 295 278 260 244 230 221 217 213 209 203 199 205
40 16 25 350 337 31 185 259 294 266 64 11 354 6 11 354 319 324 322 321 326 323 322 324 322 320 321 318 320 326 326 326 325 326 331 333 330 332 337 339 337 334 331 331 333 335 334 331 330 331 335 338 335 331 331 329 322 321 328 335 335 333 333 338 341 340 336 331 327 325 323 322 318 310 296 278 258 239 225 216 213 210 205 199 201 206
353 320 357 340 325 344 256 267 312 302 34 19 2 359 14 4 331 322 322 319 319 319 318 319 320 322 324 326 330 332 328 327 331 333 332 331 333 336 336 337 335 331 331 333 335 337 335 330 329 335 338 336 333 333 332 325 322 330 338 339 340 341 341 341 340 335 329 324 322 320 319 319 317 310 296 275 252 233 219 209 206 204 203 202 202 205
11 4 351 318 177 353 278 299 340 336 4 15 1 340 339 341 331 325 321 315 317 322 321 319 323 332 339 339 334 330 329 331 333 333 332 333 337 336 334 335 335 333 333 334 335 336 334 330 332 336 336 334 335 334 329 325 334 345 343 340 342 340 335 332 332 329 323 319 317 317 315 314 313 307 293 270 244 226 212 204 201 199 200 203 200 197
72 42 325 265 236 304 282 285 316 333 350 355 343 327 327 332 331 325 318 314 318 321 322 326 336 346 348 339 330 330 333 334 332 333 337 337 335 334 334 334 334 333 333 333 333 334 332 332 335 334 332 335 335 330 329 339 352 349 340 336 337 334 329 330 330 326 321 318 316 315 312 309 306 302 290 264 235 218 206 200 198 194 195 200 196 189
66 35 300 255 307 315 283 284 326 336 338 334 327 323 329 331 330 325 322 319 316 319 330 344 351 349 342 333 331 333 334 333 332 336 340 337 333 334 334 332 331 333 333 333 334 335 335 336 336 333 332 335 333 331 340 355 356 346 337 334 333 332 330 330 328 324 322 319 317 314 312 308 304 298 284 255 229 216 205 199 197 191 189 193 193 193
27 12 329 305 331 324 297 329 345 335 328 326 323 325 331 331 331 330 325 318 319 333 353 358 350 342 337 336 337 333 331 333 337 340 341 338 334 333 333 332 331 332 334 335 335 337 338 337 335 334 334 334 333 337 350 354 348 342 338 334 332 331 330 328 326 323 321 319 317 315 314 312 306 294 271 243 224 212 203 200 196 189 189 192 191 193
331 348 340 327 324 307 293 317 329 323 318 322 327 331 332 332 332 330 323 323 339 359 2 352 346 344 341 340 338 331 329 335 342 344 342 336 331 330 330 331 331 331 333 336 337 339 339 336 335 335 334 334 336 342 347 345 341 340 338 334 331 330 329 328 327 323 320 318 317 315 314 312 304 288 259 232 221 210 200 199 197 196 201 202 199 197
309 321 334 326 315 299 302 322 328 322 315 325 334 334 331 331 329 326 329 345 3 3 351 344 347 351 345 339 335 331 331 338 345 345 339 332 331 330 329 330 331 331 333 335 337 339 338 337 337 335 332 335 341 343 340 338 337 337 336 334 332 331 330 328 327 323 319 317 315 313 314 312 298 268 244 230 222 215 212 210 209 207 209 213 215 216
330 333 334 324 315 315 322 329 331 327 320 325 332 332 330 330 329 330 346 5 2 350 345 345 347 348 345 340 338 338 340 346 346 341 335 332 333 330 328 330 332 333 335 335 336 338 340 340 338 333 331 340 345 340 337 336 335 335 335 333 333 333 331 329 326 322 319 317 314 313 315 313 298 260 240 229 215 212 218 222 223 220 222 230 235 235
342 334 328 317 304 312 321 326 332 332 321 320 325 327 327 330 335 346 0 357 347 348 354 351 345 342 339 339 346 350 352 350 343 337 334 335 333 329 330 333 334 334 335 337 338 340 341 341 337 333 337 345 344 338 336 335 334 334 334 333 333 333 331 328 325 322 319 317 314 313 314 313 303 270 237 223 210 205 210 220 227 228 231 239 246 245